Time,TemperatureF,DewpointF,PressureIn,WindDirection,WindDirectionDegrees,WindSpeedMPH,WindSpeedGustMPH,Humidity,HourlyPrecipIn,Conditions,Clouds,dailyrainin,SoftwareType,DateUTC
2017-02-25 00:07:00,31.6,31.0,29.46,NNW,346,0.0,3.0,96,0.01,,,0.00,weatherlink.com 1.10,2017-02-25 05:07:00,
2017-02-25 00:22:00,31.5,31.0,29.43,NNW,346,0.0,1.0,96,0.01,,,0.00,weatherlink.com 1.10,2017-02-25 05:22:00,
2017-02-25 00:37:00,31.6,31.0,29.45,NW,311,2.0,3.0,96,0.01,,,0.01,weatherlink.com 1.10,2017-02-25 05:37:00,
2017-02-25 00:52:00,31.6,31.0,29.44,NW,324,3.0,4.0,96,0.01,,,0.01,weatherlink.com 1.10,2017-02-25 05:52:00,
2017-02-25 01:07:00,31.5,31.0,29.44,NW,311,3.0,3.0,96,0.01,,,0.01,weatherlink.com 1.10,2017-02-25 06:07:00,
2017-02-25 01:22:00,31.5,31.0,29.44,NW,322,2.0,4.0,96,0.01,,,0.02,weatherlink.com 1.10,2017-02-25 06:22:00,
2017-02-25 01:37:00,31.5,31.0,29.44,NNW,328,3.0,3.0,96,0.01,,,0.02,weatherlink.com 1.10,2017-02-25 06:37:00,
2017-02-25 01:52:00,31.4,30.0,29.44,NNW,330,3.0,9.0,96,0.01,,,0.02,weatherlink.com 1.10,2017-02-25 06:52:00,
2017-02-25 02:07:00,31.3,30.0,29.44,NNW,338,9.0,9.0,96,0.01,,,0.02,weatherlink.com 1.10,2017-02-25 07:07:00,
2017-02-25 02:22:00,31.0,30.0,29.44,NW,323,3.0,8.0,96,0.01,,,0.03,weatherlink.com 1.10,2017-02-25 07:22:00,
2017-02-25 02:37:00,30.9,30.0,29.44,NW,304,4.0,7.0,96,0.01,,,0.03,weatherlink.com 1.10,2017-02-25 07:37:00,
2017-02-25 02:52:00,30.0,29.0,29.43,NW,311,8.0,12.0,96,0.01,,,0.03,weatherlink.com 1.10,2017-02-25 07:52:00,
2017-02-25 03:07:00,29.4,28.0,29.43,NNW,329,10.0,15.0,96,0.01,,,0.03,weatherlink.com 1.10,2017-02-25 08:07:00,
2017-02-25 03:22:00,28.8,28.0,29.43,NW,309,11.0,14.0,95,0.00,,,0.03,weatherlink.com 1.10,2017-02-25 08:22:00,
2017-02-25 03:37:00,28.0,27.0,29.43,WNW,300,12.0,16.0,95,0.00,,,0.03,weatherlink.com 1.10,2017-02-25 08:37:00,
2017-02-25 03:52:00,27.7,27.0,29.44,NW,311,8.0,13.0,95,0.00,,,0.03,weatherlink.com 1.10,2017-02-25 08:52:00,
2017-02-25 04:07:00,27.4,26.0,29.45,NW,316,9.0,15.0,95,0.00,,,0.03,weatherlink.com 1.10,2017-02-25 09:07:00,
2017-02-25 04:23:00,27.0,26.0,29.45,WNW,298,5.0,13.0,94,0.00,,,0.03,weatherlink.com 1.10,2017-02-25 09:23:00,
2017-02-25 04:37:00,26.4,25.0,29.46,WNW,292,7.0,9.0,94,0.00,,,0.03,weatherlink.com 1.10,2017-02-25 09:37:00,
2017-02-25 04:53:00,26.1,25.0,29.46,WNW,300,6.0,11.0,94,0.00,,,0.03,weatherlink.com 1.10,2017-02-25 09:53:00,
2017-02-25 05:08:00,26.1,25.0,29.46,WNW,292,6.0,11.0,94,0.00,,,0.03,weatherlink.com 1.10,2017-02-25 10:08:00,
2017-02-25 05:23:00,26.0,24.0,29.45,WNW,291,4.0,9.0,93,0.00,,,0.03,weatherlink.com 1.10,2017-02-25 10:23:00,
2017-02-25 05:38:00,25.9,24.0,29.45,NW,309,4.0,6.0,93,0.00,,,0.03,weatherlink.com 1.10,2017-02-25 10:38:00,
2017-02-25 05:53:00,25.9,24.0,29.46,WNW,291,2.0,7.0,94,0.00,,,0.03,weatherlink.com 1.10,2017-02-25 10:53:00,
2017-02-25 06:08:00,25.8,24.0,29.46,NW,311,1.0,5.0,93,0.00,,,0.03,weatherlink.com 1.10,2017-02-25 11:08:00,
2017-02-25 06:23:00,26.0,24.0,29.47,West,276,2.0,4.0,93,0.00,,,0.03,weatherlink.com 1.10,2017-02-25 11:23:00,
2017-02-25 06:38:00,26.1,25.0,29.47,West,274,3.0,4.0,94,0.00,,,0.03,weatherlink.com 1.10,2017-02-25 11:38:00,
2017-02-25 06:53:00,26.4,25.0,29.47,West,266,4.0,5.0,94,0.00,,,0.03,weatherlink.com 1.10,2017-02-25 11:53:00,
2017-02-25 07:08:00,26.7,25.0,29.48,West,280,5.0,9.0,92,0.00,,,0.03,weatherlink.com 1.10,2017-02-25 12:08:00,
2017-02-25 07:23:00,26.5,25.0,29.49,NW,309,9.0,10.0,92,0.00,,,0.03,weatherlink.com 1.10,2017-02-25 12:23:00,
2017-02-25 07:38:00,26.3,24.0,29.49,WNW,291,5.0,10.0,92,0.00,,,0.03,weatherlink.com 1.10,2017-02-25 12:38:00,
2017-02-25 07:53:00,26.0,24.0,29.50,WNW,294,5.0,10.0,91,0.00,,,0.03,weatherlink.com 1.10,2017-02-25 12:53:00,
2017-02-25 08:08:00,25.7,24.0,29.51,West,276,7.0,10.0,92,0.00,,,0.03,weatherlink.com 1.10,2017-02-25 13:08:00,
2017-02-25 08:23:00,25.5,23.0,29.52,WNW,295,5.0,13.0,91,0.00,,,0.03,weatherlink.com 1.10,2017-02-25 13:23:00,
2017-02-25 08:38:00,25.4,23.0,29.53,NW,311,7.0,12.0,91,0.00,,,0.03,weatherlink.com 1.10,2017-02-25 13:38:00,
2017-02-25 08:53:00,25.3,22.0,29.54,WNW,291,4.0,10.0,88,0.00,,,0.03,weatherlink.com 1.10,2017-02-25 13:53:00,
2017-02-25 09:08:00,25.2,22.0,29.54,WNW,299,9.0,12.0,89,0.00,,,0.03,weatherlink.com 1.10,2017-02-25 14:08:00,
2017-02-25 09:23:00,25.2,23.0,29.54,WNW,284,7.0,11.0,91,0.00,,,0.03,weatherlink.com 1.10,2017-02-25 14:23:00,
2017-02-25 09:38:00,24.9,22.0,29.55,WNW,293,14.0,16.0,89,0.00,,,0.03,weatherlink.com 1.10,2017-02-25 14:38:00,
2017-02-25 09:53:00,24.6,22.0,29.56,West,267,8.0,15.0,88,0.00,,,0.03,weatherlink.com 1.10,2017-02-25 14:53:00,
2017-02-25 10:08:00,24.4,22.0,29.57,NW,312,9.0,16.0,89,0.00,,,0.03,weatherlink.com 1.10,2017-02-25 15:08:00,
2017-02-25 10:23:00,24.2,21.0,29.57,West,277,9.0,14.0,88,0.00,,,0.03,weatherlink.com 1.10,2017-02-25 15:23:00,
2017-02-25 10:38:00,24.1,21.0,29.58,West,281,6.0,16.0,87,0.00,,,0.03,weatherlink.com 1.10,2017-02-25 15:38:00,
2017-02-25 10:53:00,24.0,21.0,29.59,WNW,287,6.0,14.0,88,0.00,,,0.03,weatherlink.com 1.10,2017-02-25 15:53:00,
2017-02-25 11:08:00,23.7,20.0,29.59,West,276,10.0,15.0,87,0.00,,,0.03,weatherlink.com 1.10,2017-02-25 16:08:00,
2017-02-25 11:23:00,23.9,21.0,29.60,NW,326,11.0,15.0,87,0.00,,,0.03,weatherlink.com 1.10,2017-02-25 16:23:00,
2017-02-25 11:38:00,23.5,20.0,29.61,WNW,283,7.0,15.0,86,0.00,,,0.03,weatherlink.com 1.10,2017-02-25 16:38:00,
2017-02-25 11:54:00,23.5,21.0,29.61,WNW,287,7.0,15.0,90,0.00,,,0.03,weatherlink.com 1.10,2017-02-25 16:54:00,
2017-02-25 12:09:00,23.4,20.0,29.62,WNW,298,7.0,17.0,85,0.00,,,0.03,weatherlink.com 1.10,2017-02-25 17:09:00,
2017-02-25 12:24:00,23.5,20.0,29.63,WNW,302,8.0,18.0,85,0.00,,,0.03,weatherlink.com 1.10,2017-02-25 17:24:00,
2017-02-25 12:39:00,23.1,20.0,29.64,WNW,283,8.0,19.0,87,0.00,,,0.03,weatherlink.com 1.10,2017-02-25 17:39:00,
2017-02-25 12:54:00,23.6,19.0,29.64,WNW,301,10.0,15.0,83,0.00,,,0.03,weatherlink.com 1.10,2017-02-25 17:54:00,
2017-02-25 13:09:00,23.4,20.0,29.65,WNW,300,7.0,17.0,86,0.00,,,0.03,weatherlink.com 1.10,2017-02-25 18:09:00,
2017-02-25 13:24:00,23.4,20.0,29.65,WNW,283,9.0,13.0,87,0.00,,,0.03,weatherlink.com 1.10,2017-02-25 18:24:00,
2017-02-25 13:39:00,23.5,21.0,29.66,WNW,293,6.0,16.0,88,0.00,,,0.03,weatherlink.com 1.10,2017-02-25 18:39:00,
2017-02-25 13:54:00,23.1,20.0,29.67,West,276,10.0,16.0,87,0.00,,,0.03,weatherlink.com 1.10,2017-02-25 18:54:00,
2017-02-25 14:09:00,23.0,20.0,29.68,West,274,10.0,15.0,88,0.00,,,0.03,weatherlink.com 1.10,2017-02-25 19:09:00,
2017-02-25 14:24:00,23.0,20.0,29.68,WNW,302,7.0,12.0,89,0.00,,,0.03,weatherlink.com 1.10,2017-02-25 19:24:00,
2017-02-25 14:39:00,23.2,20.0,29.69,West,271,11.0,14.0,88,0.00,,,0.03,weatherlink.com 1.10,2017-02-25 19:39:00,
2017-02-25 14:54:00,23.1,20.0,29.70,West,263,11.0,13.0,87,0.00,,,0.03,weatherlink.com 1.10,2017-02-25 19:54:00,
2017-02-25 15:09:00,23.6,20.0,29.71,WNW,291,10.0,16.0,84,0.00,,,0.03,weatherlink.com 1.10,2017-02-25 20:09:00,
2017-02-25 15:24:00,23.4,19.0,29.72,West,281,10.0,16.0,84,0.00,,,0.03,weatherlink.com 1.10,2017-02-25 20:24:00,
2017-02-25 15:39:00,23.7,20.0,29.73,WNW,285,10.0,16.0,87,0.00,,,0.03,weatherlink.com 1.10,2017-02-25 20:39:00,
2017-02-25 15:55:00,23.9,20.0,29.74,WNW,283,9.0,17.0,86,0.00,,,0.03,weatherlink.com 1.10,2017-02-25 20:55:00,
2017-02-25 16:09:00,24.0,20.0,29.74,West,271,6.0,12.0,85,0.00,,,0.03,weatherlink.com 1.10,2017-02-25 21:09:00,